Weather History for Montreal Mirabel, QC

Change the Weather History Date:

Friday, October 28, 2011

  Actual Average Record
Temperature  
Mean Temperature 35 °F -  
Max Temperature 44 °F 46 °F 59 °F (2010)
Min Temperature 26 °F 31 °F 23 °F (1999)
Degree Days  
Heating Degree Days 30    
Moisture  
Dew Point 22 °F    
Average Humidity 63    
Maximum Humidity 86    
Minimum Humidity 42    
Precipitation  
Precipitation 0.00 in - - ()
Sea Level Pressure  
Sea Level Pressure 30.15 in    
Wind  
Wind Speed 5 mph ()    
Max Wind Speed 9 mph    
Max Gust Speed 20 mph    
Averages and records for this station are not official NWS values.
T = Trace of Precipitation, MM = Missing Value Source: Averaged Metar Reports

Daily Weather History Graph

Daily Weather History Graph

Search for Another Location

Airport:

Trip Planner

Search our weather history database for the weather conditions in past years. The results will help you decide how hot, cold, wet, or windy it might be!

Date:

Astronomy

Oct. 28, 2011 Rise Set
Actual Time 7:29 AM EDT 5:49 PM EDT
Civil Twilight 6:59 AM EDT 6:19 PM EDT
Nautical Twilight 6:24 AM EDT 6:54 PM EDT
Astronomical Twilight 5:49 AM EDT 7:29 PM EDT
Moon 9:51 AM EDT (10/28) 7:00 PM EDT (10/28)
Length of Visible Light 11h 20m
Length of Day
10h 19m
Waxing Crescent, 5% of the Moon is Illuminated
Oct 28
Waxing Crescent
Nov 2
First Quarter
Nov 10
Full
Nov 18
Last Quarter
Nov 25
New

Hourly Weather History & Observations

Time (EDT) Temp. Windchill Dew Point Humidity Pressure Visibility Wind Dir Wind Speed Gust Speed Precip Events Conditions
12:00 AM 30.2 °F 24.3 °F 19.4 °F 64% 30.00 in 25.0 mi West 5.8 mph - N/A   Partly Cloudy
1:00 AM 30.2 °F 24.3 °F 21.2 °F 69% 30.01 in 25.0 mi West 5.8 mph - N/A   Partly Cloudy
2:00 AM 32.0 °F 27.5 °F 21.2 °F 64% 30.03 in 25.0 mi West 4.6 mph - N/A   Partly Cloudy
3:00 AM 32.0 °F 28.7 °F 21.2 °F 64% 30.04 in 25.0 mi West 3.5 mph - N/A   Partly Cloudy
4:00 AM 28.4 °F 23.3 °F 21.2 °F 74% 30.06 in 25.0 mi West 4.6 mph - N/A   Partly Cloudy
5:00 AM 28.4 °F 24.6 °F 21.2 °F 74% 30.07 in 25.0 mi West 3.5 mph - N/A   Partly Cloudy
6:00 AM 26.6 °F 21.2 °F 21.2 °F 80% 30.09 in 25.0 mi WSW 4.6 mph - N/A   Partly Cloudy
7:00 AM 26.6 °F 20.0 °F 23.0 °F 86% 30.10 in 45.0 mi WSW 5.8 mph - N/A   Partly Cloudy
8:00 AM 26.6 °F 20.0 °F 23.0 °F 86% 30.13 in 45.0 mi WSW 5.8 mph - N/A   Partly Cloudy
9:00 AM 30.2 °F 22.6 °F 26.6 °F 86% 30.15 in 45.0 mi West 8.1 mph - N/A   Partly Cloudy
10:00 AM 35.6 °F 29.2 °F 28.4 °F 75% 30.16 in 45.0 mi West 8.1 mph - N/A   Partly Cloudy
11:00 AM 39.2 °F 33.0 °F 24.8 °F 56% 30.17 in 45.0 mi West 9.2 mph - N/A   Partly Cloudy
12:00 PM 41.0 °F 35.2 °F 23.0 °F 49% 30.17 in 45.0 mi WNW 9.2 mph 19.6 mph N/A   Partly Cloudy
1:00 PM 42.8 °F 37.5 °F 23.0 °F 46% 30.17 in 45.0 mi West 9.2 mph - N/A   Partly Cloudy
2:00 PM 44.6 °F 40.2 °F 24.8 °F 46% 30.16 in 45.0 mi West 8.1 mph 18.4 mph N/A   Partly Cloudy
3:00 PM 44.6 °F 39.7 °F 23.0 °F 43% 30.17 in 45.0 mi West 9.2 mph 18.4 mph N/A   Partly Cloudy
4:00 PM 42.8 °F 38.0 °F 21.2 °F 42% 30.18 in 45.0 mi West 8.1 mph - N/A   Partly Cloudy
5:00 PM 41.0 °F 36.4 °F 21.2 °F 45% 30.19 in 45.0 mi WNW 6.9 mph - N/A   Partly Cloudy
6:00 PM 39.2 °F 33.6 °F 23.0 °F 52% 30.20 in 25.0 mi NNW 8.1 mph - N/A   Partly Cloudy
7:00 PM 37.4 °F 32.1 °F 21.2 °F 52% 30.23 in 25.0 mi NNW 6.9 mph - N/A   Partly Cloudy
8:00 PM 35.6 °F - 21.2 °F 56% 30.25 in 25.0 mi NW 2.3 mph - N/A   Clear
9:00 PM 32.0 °F - 21.2 °F 64% 30.25 in 25.0 mi Calm Calm - N/A   Clear
10:00 PM 32.0 °F - 21.2 °F 64% 30.27 in 25.0 mi NNW 2.3 mph - N/A   Clear
11:00 PM 28.4 °F 23.3 °F 21.2 °F 74% 30.28 in 25.0 mi South 4.6 mph - N/A   Clear